Regional Weather Roundup
Issued by NWS Northern Indiana

Home | Current Version | Previous Version | Text Only | Print | Product List | Glossary Off
Versions: 1 2 3 4 5 6 7 8 9 10 11 12 13 14 15 16 17 18 19 20 21 22 23 24 25 26 27 28 29 30 31 32 33 34 35 36 37 38 39 40 41 42 43 44 45 46 47 48 49 50

000
ASUS43 KIWX 231200
RWRIWX

KIWX WEATHER ROUNDUP
NATIONAL WEATHER SERVICE NORTHERN INDIANA
800 AM EDT SAT AUG 23 2014

NOTE: "FAIR" INDICATES FEW OR NO CLOUDS BELOW 12,000 FEET WITH NO
SIGNIFICANT WEATHER AND/OR OBSTRUCTIONS TO VISIBILITY.

* THESE STATIONS ARE NOT UNDER NWS QUALITY CONTROL. THEY ALSO MAY NOT
  REPORT WEATHER SUCH AS PRECIPITATION OR FOG.

INZ001>027-231300-
NORTHERN INDIANA

CITY           SKY/WX    TMP DP  RH WIND       PRES   REMARKS
GARY*          MOCLDY    72  70  94 CALM      29.98S FOG
VALPARAISO     FOG       69  68  96 CALM      29.99R VSB 1/4
6HR MIN TEMP:  67; 6HR MAX TEMP:  71;

KNOX*          PTCLDY    68  66  94 CALM      29.98S
6HR MIN TEMP:  41; 6HR MAX TEMP:  86;

SOUTH BEND     FOG       74  73  97 SE6       29.99F VSB 1/4
6HR MIN TEMP:  70; 6HR MAX TEMP:  74;

GOSHEN         CLOUDY    74  72  93 E5        30.00S FOG
6HR MIN TEMP:  71; 6HR MAX TEMP:  77;

MONTICELLO*    MOCLDY    69  69 100 CALM      29.98S
6HR MIN TEMP:  67; 6HR MAX TEMP:  71;

WARSAW*        CLOUDY    70  70 100 CALM      30.00F FOG
ANGOLA*        CLOUDY    70  61  73 E5        30.03R
FORT WAYNE     FOG       71  71 100 CALM      30.01S VSB 1/4
6HR MIN TEMP:  68; 6HR MAX TEMP:  73; 6HR PCP: TRACE;


$$
INZ028>050-231300-
CENTRAL INDIANA

CITY           SKY/WX    TMP DP  RH WIND       PRES   REMARKS
LAFAYETTE      MOCLDY    71  71 100 E5        29.98S
6HR MIN TEMP:  67; 6HR MAX TEMP:  71;

KOKOMO*        CLOUDY    68  66  94 S3        30.00S VSB 1/4
6HR MIN TEMP:  66; 6HR MAX TEMP:  73;

MUNCIE*        MOSUNNY   69  67  93 CALM      30.01S
6HR MIN TEMP:  67; 6HR MAX TEMP:  71;

INDIANAPOLIS   NOT AVBL

$$
MIZ043>046-050>051-056>058-064>065-071>073-077>080-231300-
SOUTHWEST LOWER MICHIGAN

CITY           SKY/WX    TMP DP  RH WIND       PRES   REMARKS
BATTLE CREEK   PTSUNNY   71  67  87 E5        30.03S FOG
6HR MIN TEMP:  71; 6HR MAX TEMP:  73;

BENTON HARBOR  FOG       70  69  97 E3        29.98S VSB 1
6HR MIN TEMP:  68; 6HR MAX TEMP:  71;

COLDWATER*     PTSUNNY   71  69  95 E6        30.02S FOG
6HR MIN TEMP:  71; 6HR MAX TEMP:  74;

HILLSDALE*     MOSUNNY   67  66  99 CALM      30.04S FOG
HOLLAND        SUNNY     70  67  90 E7        30.01S
6HR MIN TEMP:  67; 6HR MAX TEMP:  72;

GRAND RAPIDS   MOSUNNY   67  67 100 E9        30.03S
6HR MIN TEMP:  67; 6HR MAX TEMP:  70;

KALAMAZOO      SUNNY     70  68  93 CALM      30.01F FOG
6HR MIN TEMP:  68; 6HR MAX TEMP:  73;

STURGIS*       FOG       70  70 100 E5        30.01S VSB 1
THREE RIVERS*  CLOUDY    72  71  99 E7        30.02S FOG
6HR MIN TEMP:  70; 6HR MAX TEMP:  74;


$$
OHZ001>008-015>018-024>025-231300-
NORTHWEST OHIO

CITY           SKY/WX    TMP DP  RH WIND       PRES   REMARKS
DEFIANCE       FOG       70  68  93 NE6       30.02R VSB 1/4
6HR MIN TEMP:  70; 6HR MAX TEMP:  73;

FINDLAY        FOG       70  69  97 E6        30.01S VSB 1/2
6HR MIN TEMP:  67; 6HR MAX TEMP:  73;

TOLEDO EXPRESS PTSUNNY   67  64  90 E3        30.02S
6HR MIN TEMP:  66; 6HR MAX TEMP:  72;

TOLEDO METCALF SUNNY     71  66  84 NE6       30.03R
6HR MIN TEMP:  70; 6HR MAX TEMP:  74;

LIMA           MOSUNNY   72  68  87 E6        30.01S FOG
6HR MIN TEMP:  70; 6HR MAX TEMP:  74;


$$
&&


USA.gov is the U.S. government's official web portal to all federal, state and local government web resources and services.